Location: Newark
(58.8333°N, 23.5833°E)
Time: 23:58:54
(UTC+00:00)

A-11 Canister half - Pass Details

Date: 21 November 2019
Orbit: 1515 x 1685 km, 47.2° (Epoch: 10 December)

Event Time Altitude Azimuth Distance (km) Brightness Sun altitude
Rises 21:28:02 0° 278° (W) 4,944 11.9 -50.4°
Enters shadow 21:31:45 10° 267° (W) 3,982 11.2 -50.5°
Reaches altitude 10° 21:31:52 10° 267° (W) 3,953 - -50.5°
Maximum altitude 21:39:39 26° 216° (SW) 2,853 - -50.7°
Drops below altitude 10° 21:47:21 10° 165° (SSE) 3,893 - -50.9°
Sets 21:51:07 0° 154° (SSE) 4,855 - -51.0°
